Lexington Weather

Lexington, Massachusetts, USA

35°F
10/30/2020 6:07am 
  • Lexington Conditions: Light snow, Mist, Overcast
  • Temperature: 35.1°F / 1.7°CColder 0.9°F than last hour.
  • Dew Point: 34.3°FDecreased 0.9°Fsince last hour.
  • Relative Humidity: 97
  • Wind: Wind from NE NE 1 mph, 10-min avg: 2 mph, gust: 4 mph
  • Barometer: 29.76 in Steady
  • Visibility: 5 miles
  • Rain Today: 0.08 in
  •   
Southeast Middlesex County - Winter Weather Advisory
 - SEE ALL NEARBY ALERTS -

Regional Weather Roundup
for Boston / Norton, MA

        
000
ASUS41 KBOX 260404
RWRBOX

REGIONAL WEATHER ROUNDUP
NATIONAL WEATHER SERVICE BOSTON/NORTON MA
1200 AM EDT MON OCT 26 2020

NOTE:  "FAIR" INDICATES FEW OR NO CLOUDS BELOW 12,000 FEET WITH NO 
SIGNIFICANT WEATHER AND/OR OBSTRUCTIONS TO VISIBILITY.

MAZALL-260500-
EASTERN MASSACHUSETTS
  
CITY           SKY/WX    TMP DP  RH WIND       PRES   REMARKS
BOSTON         CLOUDY    48  32  53 E12       30.37R                  
BEVERLY        CLEAR     46  35  65 NE3       30.36S                  
LAWRENCE       CLEAR     39  36  89 NE5       30.39R                  
BEDFORD        PTCLDY    45  36  70 NE5       30.35R                  
BLUE HILL        N/A     44  35  70 E9        30.33S                  
NORWOOD        MOCLDY    48  37  65 NE3       30.36R                  
MARSHFIELD     CLOUDY    50  36  57 E9G16     30.35S                  
PLYMOUTH       CLOUDY    47  38  71 E6        30.34F                  
TAUNTON        CLOUDY    47  40  76 CALM      30.35S                  
NEW BEDFORD    CLOUDY    48  39  71 NE5       30.34S                  
$$

MAZALL-260500-
CAPE COD AND THE ISLANDS
  
CITY           SKY/WX    TMP DP  RH WIND       PRES   REMARKS
FALMOUTH       CLOUDY    46  37  71 E9        30.34S                  
HYANNIS        LGT RAIN  47  41  80 N5        30.33S                  
CHATHAM        CLOUDY    50  37  61 E12       30.35S                  
PROVINCETOWN   CLOUDY    48  38  68 E12       30.36F                  
NANTUCKET      CLOUDY   N/A N/A N/A E13       30.33S                  
MARTHAS VNYRD  CLOUDY    51  40  65 E16       30.33S                  
$$
 
MAZALL-260500-
CENTRAL AND WESTERN MASSACHUSETTS
  
CITY           SKY/WX    TMP DP  RH WIND       PRES   REMARKS
WORCESTER      CLOUDY    43  35  73 E7        30.33S                  
FITCHBURG      CLEAR     40  36  86 N3        30.36S                  
ORANGE         PTCLDY    38  35  89 CALM      30.35R                  
SPRINGFIELD    CLOUDY    46  36  68 E7        30.32S                  
WESTFIELD      CLOUDY    44  37  76 VRB3      30.33S                  
NORTH ADAMS    CLEAR     45  30  55 E10G20    30.30F                  
PITTSFIELD     CLOUDY    43  34  70 SE8       30.27F                  
$$
 
RIZALL-260500-
RHODE ISLAND
  
CITY           SKY/WX    TMP DP  RH WIND       PRES   REMARKS
PROVIDENCE     CLOUDY    46  39  76 NE8       30.35S                  
NEWPORT        LGT RAIN  47  39  74 E8        30.33S                  
BLOCK ISLAND   CLOUDY    49  43  80 E16G23    30.31F                  
SMITHFIELD     CLOUDY    44  41  89 E3        30.34F                  
WESTERLY       CLOUDY    48  39  71 NE7       30.32F                  
$$
 
CTZALL-260500-
CONNECTICUT
  
CITY           SKY/WX    TMP DP  RH WIND       PRES   REMARKS
BRADLEY INTL   CLOUDY    47  38  71 E8        30.32S                  
HARTFORD       LGT RAIN  49  38  65 E6        30.32S                  
BRIDGEPORT     LGT RAIN  51  47  86 E21G26    30.27S                  
DANBURY        LGT RAIN  46  39  76 E7          N/A                   
GROTON         CLOUDY    49  40  71 NE15      30.30F                  
NEW HAVEN      CLOUDY    49  42  77 NE12      30.28S HAZE             
CHESTER        CLOUDY    46  41  81 E6        30.30S                  
MERIDEN        CLOUDY    48  39  71 VRB5      30.30S                  
WILLIMANTIC    CLOUDY    47  38  71 E7        30.33F                  
OXFORD         CLOUDY    45  39  79 E9        30.29S                  
$$

MEZ002-015-021-024-NHZ003-005-008-011-012-014-VTZ005-008-260500-
NORTHERN NEW ENGLAND
  
CITY           SKY/WX    TMP DP  RH WIND       PRES   REMARKS
PORTLAND ME    PTCLDY    36  27  69 N5        30.40R                  
BANGOR ME      PTCLDY    33  24  69 N6        30.43R WCI  28          
CONCORD NH     CLEAR     31  28  89 CALM      30.37S                  
MANCHESTER NH  PTCLDY    38  33  82 N3        30.35S                  
NASHUA NH      CLEAR     36  36 100 NW5       30.37S                  
PORTSMOUTH NH  PTCLDY    39  30  70 N5        30.37R                  
JAFFREY NH     CLEAR     33  29  85 CALM      30.34R                  
KEENE NH       CLEAR     32  30  92 CALM      30.36S                  
BURLINGTON VT  CLOUDY    37  27  67 CALM      30.33F                  
MT. WASHINGTON CLOUDY    27  -6  24 SW16        N/A  WCI  14          
$$

NYZ052-076-260500-
EASTERN NEW YORK
  
CITY           SKY/WX    TMP DP  RH WIND       PRES   REMARKS
ALBANY         CLOUDY    38  29  70 N5        30.30F                  
NEW YORK CITY  CLOUDY    54  47  77 NE13      30.25S                  
$$
 
ANZALL-260500-
MARINE OBSERVATIONS
  
STATION/POSITION TIME  TEMP    WIND        PRES    VSBY  WAVE
                       AIR SEA DIR/SP/G                  HT/PER
                 (UTC) (F)     (DEG/KT/KT) (MB)    (MI)  (FT/S)
BOSTON BUOY      0350   50 57   70/ 12/ 14 1027.1F         5/11
BUZZARDS BAY     0300           70/ 18/ 20 1028.2R
NANTUCKET SOUND  0340      61   80/ 16/ 19   N/A
MASS BAY-STELLWA 0304   50 56   70/ 12/ 17 1027.7R  1 7/8  4/11
ISLE OF SHOALS   0300   48      80/ 13/ 15 1027.8S
S OF BLOCK IS    0326      62                N/A           5/ 5
$$

......................KEY.........................
  SKY/WX - SKY CONDITION/PRESENT WEATHER
  TMP    - TEMPERATURE IN FAHRENHEIT
  DWPT   - DEWPOINT IN FAHRENHEIT
  RH     - RELATIVE HUMIDITY IN PERCENT
  WIND   - DIRECTION AND SPEED IN MPH
  PRES   - MEAN SEA LEVEL PRESSURE IN INCHES OF HG
  WCI    - WIND CHILL INDEX
  VSB    - VISIBILITY IN MILES
  HX     - HEAT INDEX
  TC     - TEMPERATURE IN CELSIUS
  VRB    - VARIABLE WIND DIRECTION
  N/A    - NOT AVAILABLE
  
      

Other recent Regional Weather Roundups

Fri Oct 30, 5:04am

Fri Oct 30, 4:04am

Fri Oct 30, 3:04am

Fri Oct 30, 2:04am

Fri Oct 30, 1:04am

Fri Oct 30, 12:04am

Thu Oct 29, 11:04pm

Thu Oct 29, 10:04pm

Thu Oct 29, 9:04pm

Thu Oct 29, 8:04pm

Thu Oct 29, 7:04pm

Thu Oct 29, 6:04pm

Thu Oct 29, 5:05pm

Thu Oct 29, 4:05pm

Thu Oct 29, 3:05pm

Thu Oct 29, 2:04pm

Thu Oct 29, 1:04pm

Thu Oct 29, 12:04pm

Thu Oct 29, 11:04am

Thu Oct 29, 10:04am

Thu Oct 29, 9:04am

Thu Oct 29, 8:04am

Thu Oct 29, 7:04am

Thu Oct 29, 6:04am

Thu Oct 29, 5:04am

Thu Oct 29, 4:04am

Thu Oct 29, 3:04am

Thu Oct 29, 2:04am

Thu Oct 29, 1:05am

Thu Oct 29, 12:04am

Wed Oct 28, 11:05pm

Wed Oct 28, 10:04pm

Wed Oct 28, 9:04pm

Wed Oct 28, 8:04pm

Wed Oct 28, 7:05pm

Wed Oct 28, 6:04pm

Wed Oct 28, 5:05pm

Wed Oct 28, 4:04pm

Wed Oct 28, 3:04pm

Wed Oct 28, 2:04pm

Wed Oct 28, 1:05pm

Wed Oct 28, 12:05pm

Wed Oct 28, 11:05am

Wed Oct 28, 10:04am

Wed Oct 28, 9:04am

Wed Oct 28, 8:04am

Wed Oct 28, 7:04am

Wed Oct 28, 6:04am

Wed Oct 28, 5:05am

Wed Oct 28, 4:04am

Wed Oct 28, 3:04am

Wed Oct 28, 2:04am

Wed Oct 28, 1:05am

Wed Oct 28, 12:04am

Tue Oct 27, 11:04pm

Tue Oct 27, 10:04pm

Tue Oct 27, 9:05pm

Tue Oct 27, 8:04pm

Tue Oct 27, 7:04pm

Tue Oct 27, 6:04pm

Tue Oct 27, 5:04pm

Tue Oct 27, 4:05pm

Tue Oct 27, 3:04pm

Tue Oct 27, 2:04pm

Tue Oct 27, 1:04pm

Tue Oct 27, 12:04pm

Tue Oct 27, 11:04am

Tue Oct 27, 10:04am

Tue Oct 27, 9:04am

Tue Oct 27, 8:04am

Tue Oct 27, 7:04am

Tue Oct 27, 6:04am

Tue Oct 27, 5:04am

Tue Oct 27, 4:04am

Tue Oct 27, 3:04am

Tue Oct 27, 2:05am

Tue Oct 27, 1:04am

Tue Oct 27, 12:04am

Mon Oct 26, 11:05pm

Mon Oct 26, 10:04pm

Mon Oct 26, 9:04pm

Mon Oct 26, 8:04pm

Mon Oct 26, 7:04pm

Mon Oct 26, 6:04pm

Mon Oct 26, 5:04pm

Mon Oct 26, 4:05pm

Mon Oct 26, 2:04pm

Mon Oct 26, 1:04pm

Mon Oct 26, 12:04pm

Mon Oct 26, 11:05am

Mon Oct 26, 10:04am

Mon Oct 26, 9:04am

Mon Oct 26, 8:04am

Mon Oct 26, 7:04am

Mon Oct 26, 6:04am

Mon Oct 26, 5:04am

Mon Oct 26, 4:04am

Mon Oct 26, 3:04am

Mon Oct 26, 2:04am

Mon Oct 26, 1:04am

Sun Oct 25, 11:05pm

Sun Oct 25, 10:04pm

Sun Oct 25, 9:04pm

Sun Oct 25, 8:04pm

Sun Oct 25, 7:04pm

Sun Oct 25, 6:04pm

Sun Oct 25, 5:04pm

Sun Oct 25, 4:05pm

Sun Oct 25, 3:04pm

Sun Oct 25, 2:04pm

Sun Oct 25, 1:04pm

Sun Oct 25, 12:04pm

Sun Oct 25, 11:04am

Sun Oct 25, 10:04am

Sun Oct 25, 9:04am

Sun Oct 25, 8:04am

Sun Oct 25, 7:04am

Sun Oct 25, 6:04am

Sun Oct 25, 5:04am

Sun Oct 25, 4:04am

Sun Oct 25, 3:04am

Sun Oct 25, 2:04am

Sun Oct 25, 1:05am

Sun Oct 25, 12:04am

Sat Oct 24, 11:04pm

Sat Oct 24, 10:04pm

Sat Oct 24, 9:04pm

Sat Oct 24, 8:04pm

Sat Oct 24, 7:04pm

Sat Oct 24, 6:04pm

Sat Oct 24, 5:05pm

Sat Oct 24, 4:04pm

Sat Oct 24, 3:04pm

Sat Oct 24, 2:04pm

Sat Oct 24, 1:05pm

Sat Oct 24, 12:04pm

Sat Oct 24, 11:05am

Sat Oct 24, 10:05am

Sat Oct 24, 9:04am

Sat Oct 24, 8:04am

Sat Oct 24, 7:04am

Sat Oct 24, 6:04am

Sat Oct 24, 5:04am

Sat Oct 24, 4:04am

Sat Oct 24, 3:04am

Sat Oct 24, 2:04am

Sat Oct 24, 1:05am

Sat Oct 24, 12:04am

Fri Oct 23, 11:04pm

Fri Oct 23, 10:04pm

Fri Oct 23, 9:04pm

Fri Oct 23, 8:05pm

Fri Oct 23, 7:04pm

Fri Oct 23, 6:04pm

Fri Oct 23, 5:05pm

Fri Oct 23, 4:04pm

Fri Oct 23, 3:04pm

Fri Oct 23, 2:05pm

Fri Oct 23, 1:04pm

Fri Oct 23, 12:04pm

Fri Oct 23, 11:04am

Fri Oct 23, 10:04am

Fri Oct 23, 9:04am

Fri Oct 23, 8:04am

Fri Oct 23, 7:04am

Fri Oct 23, 6:04am

Meta data:

ID: a2655ad5-2562-45c1-9547-4c53d5e5f9a1
Link: https://api.weather.gov/products/a2655ad5-2562-45c1-9547-4c53d5e5f9a1